Campo, CA

1:07 AM PST on December 06, 2019 (GMT -0800)
Campo

Weather History for KCZZ - June, 2019

Change the Weather History Date:

Saturday, June 1, 2019

  Actual Average Record
Temperature  
Mean Temperature 59 °F 63 °F  
Max Temperature 71 °F 83 °F 98 °F (2013)
Min Temperature 47 °F 43 °F 31 °F (1971)
Degree Days  
Heating Degree Days 6 4  
Month to date heating degree days 6 4  
Since 1 June heating degree days 6 4  
Since 1 July heating degree days 3021 2931  
Cooling Degree Days 0 2  
Month to date cooling degree days 0 2  
Year to date cooling degree days 2 32  
Since 1 June cooling degree days 0 2  
Growing Degree Days 9 (Base 50)    
Moisture  
Dew Point 49 °F    
Average Humidity 72    
Maximum Humidity 100    
Minimum Humidity 44    
Precipitation  
Precipitation 0.00 in 0.00 in 0.06 in (1963)
Month to date precipitation 0.00 0.00  
Year to date precipitation 12.74 10.04  
Sea Level Pressure  
Sea Level Pressure 29.78 in    
Wind  
Wind Speed 9 mph (SSW)    
Max Wind Speed 21 mph    
Max Gust Speed 24 mph    
T = Trace of Precipitation, MM = Missing Value Source: NWS Daily Summary

Daily Weather History Graph

Daily Weather History Graph

Search for Another Location

Airport or City:

Astronomy

Jun. 01, 2019 Rise Set
Actual Time 5:39 AM PDT 7:48 PM PDT
Civil Twilight 5:11 AM PDT 8:16 PM PDT
Nautical Twilight 4:36 AM PDT 8:50 PM PDT
Astronomical Twilight 4:00 AM PDT 9:27 PM PDT
Moon 4:36 AM PDT (6/1) 6:14 PM PDT (6/1)
Length of Visible Light 15h 05m
Length of Day
14h 09m
Waning Crescent, 3% of the Moon is Illuminated
Jun 1
Waning Crescent
Jun 3
New
Jun 9
First Quarter
Jun 17
Full
Jun 25
Last Quarter

Hourly Weather History & Observations

Time (PDT) Temp. Dew Point Humidity Pressure Visibility Wind Dir Wind Speed Gust Speed Precip Events Conditions
12:52 AM 52.0 °F 50.0 °F 93% 29.78 in - Calm Calm - N/A   Unknown
1:52 AM 51.1 °F 51.1 °F 100% 29.77 in - Calm Calm - N/A   Unknown
2:52 AM 51.1 °F 48.9 °F 92% 29.76 in - Calm Calm - N/A   Unknown
3:52 AM 51.1 °F 50.0 °F 96% 29.76 in - NNE 3.5 mph - N/A   Unknown
4:52 AM 50.0 °F 48.0 °F 93% 29.76 in - NNE 3.5 mph - N/A   Unknown
5:52 AM 48.9 °F 46.9 °F 93% 29.78 in - NNE 3.5 mph - N/A   Unknown
6:52 AM 48.0 °F 46.0 °F 93% 29.78 in - ENE 4.6 mph - N/A   Unknown
7:52 AM 51.1 °F 46.9 °F 86% 29.79 in - South 5.8 mph - N/A   Unknown
8:52 AM 60.1 °F 46.9 °F 62% 29.79 in - SW 3.5 mph - N/A   Unknown
10:52 AM 66.0 °F 48.0 °F 52% 29.79 in - SSW 13.8 mph - N/A   Unknown
11:52 AM 68.0 °F 48.0 °F 49% 29.79 in - SSW 15.0 mph - N/A   Unknown
12:52 PM 69.1 °F 46.9 °F 45% 29.78 in - SW 16.1 mph - N/A   Unknown
1:52 PM 69.1 °F 46.9 °F 45% 29.78 in - SW 15.0 mph - N/A   Unknown
2:52 PM 70.0 °F 50.0 °F 49% 29.76 in - SSW 12.7 mph - N/A   Unknown
3:52 PM 70.0 °F 50.0 °F 49% 29.75 in - SSW 15.0 mph - N/A   Unknown
4:52 PM 68.0 °F 48.9 °F 50% 29.75 in - SW 16.1 mph - N/A   Unknown
5:52 PM 66.0 °F 48.9 °F 54% 29.75 in - SW 13.8 mph - N/A   Unknown
6:52 PM 62.1 °F 50.0 °F 65% 29.76 in - SW 15.0 mph - N/A   Unknown
7:52 PM 57.0 °F 50.0 °F 77% 29.78 in - SSW 11.5 mph - N/A   Unknown
8:52 PM 53.1 °F 48.9 °F 86% 29.79 in - SSW 6.9 mph - N/A   Unknown
9:52 PM 52.0 °F 48.9 °F 89% 29.81 in - SSW 8.1 mph - N/A   Unknown
10:52 PM 53.1 °F 50.0 °F 89% 29.81 in - Calm Calm - N/A   Unknown
11:52 PM 53.1 °F 51.1 °F 93% 29.81 in - Calm Calm - N/A   Unknown